Wind_Speed
3 3 3 4 3 3 3 4 2 3 2 2 6 4 4 1 4 3 2 16 13 29 28 25 24 20 18 16 15 14 12 11 8 7 6 5 7 8 7 6 10 8 5 4 4 3 3 1 2
2 2 4 2 3 2 4 3 4 4 0 3 3 2 1 5 3 5 3 20 18 30 29 27 24 22 20 18 17 14 13 13 12 10 7 7 6 6 7 7 7 6 6 6 5 3 2 1 1
2 3 3 3 2 3 3 4 3 2 2 3 1 2 2 4 2 3 3 22 19 31 29 27 24 21 20 20 18 16 15 16 13 13 12 10 8 8 7 7 8 7 7 6 4 1 1 2 3
1 5 4 3 4 6 5 2 3 5 1 2 1 5 4 6 3 4 5 21 19 30 28 26 24 24 22 19 19 19 18 17 16 14 14 12 10 8 6 6 7 8 8 7 4 3 4 2 1
5 3 3 2 4 5 5 5 2 2 3 2 2 3 4 3 8 4 7 19 20 29 29 26 25 24 23 22 21 21 21 21 19 16 13 14 12 11 10 9 9 8 7 5 5 6 4 3 4
4 3 3 2 4 5 6 5 2 2 2 1 2 1 5 5 5 9 10 18 20 26 28 26 26 25 24 21 21 23 23 21 18 17 15 15 14 13 12 12 11 10 8 7 7 5 4 5 5
6 4 3 3 4 6 4 2 3 3 2 5 2 2 4 5 6 8 11 17 21 23 26 27 27 26 25 22 23 22 23 22 19 17 17 17 15 14 13 13 12 11 12 11 9 7 6 5 4
4 4 2 4 3 6 3 2 3 5 4 2 4 5 5 2 4 9 12 18 21 24 26 27 28 28 29 26 25 25 25 22 23 22 22 21 18 16 15 15 14 13 13 11 10 8 6 5 5
3 3 2 5 6 5 2 2 3 1 3 4 6 5 5 4 6 11 13 18 22 26 28 28 29 30 31 29 27 28 25 26 26 26 25 24 21 19 18 17 15 14 12 11 9 7 5 5 5
4 4 8 6 5 5 3 5 3 2 5 6 6 9 15 9 11 16 19 22 27 31 33 32 31 32 31 30 29 29 28 29 28 28 28 25 23 21 18 19 18 16 14 12 9 7 5 5 5
4 6 5 5 8 4 4 4 4 4 7 10 9 8 6 11 15 19 23 28 37 35 34 36 35 33 33 32 32 31 32 31 31 30 29 26 24 22 23 23 21 19 16 12 9 8 7 6 5
3 8 6 4 4 1 4 3 4 8 18 8 10 6 4 8 12 20 24 33 35 33 36 37 37 37 36 35 35 35 35 35 34 33 30 29 27 26 26 25 23 20 17 14 12 10 9 7 5
4 5 5 5 5 8 5 14 6 14 18 10 8 8 12 10 17 25 32 30 32 38 39 39 40 41 41 39 39 38 39 39 38 35 33 31 30 29 28 27 24 21 19 16 14 12 10 8 6
3 4 7 5 7 6 7 16 5 10 8 12 7 15 10 11 18 19 25 35 35 38 41 41 43 44 45 45 44 43 42 42 40 39 36 34 33 31 30 28 26 24 21 18 15 13 11 9 7
1 6 8 6 4 7 7 9 11 19 1 12 17 11 12 11 15 23 31 30 35 37 37 41 43 45 49 49 49 48 47 45 43 42 39 38 36 34 32 30 28 26 23 21 18 15 12 9 7
2 1 4 4 5 3 8 13 16 7 5 11 12 13 9 16 13 26 30 32 33 33 34 37 40 46 50 52 53 52 51 49 47 46 43 41 38 37 35 33 31 28 25 23 20 18 15 11 8
2 5 7 10 9 4 7 9 9 4 4 12 14 17 20 20 22 25 28 29 31 32 33 35 38 43 49 51 50 51 53 52 51 48 46 44 41 39 38 36 33 30 28 26 23 20 16 13 9
7 5 5 6 8 5 7 14 15 14 14 23 21 19 19 18 21 30 25 26 26 27 30 31 35 39 42 43 42 44 49 50 52 52 50 46 44 42 40 37 34 32 30 27 25 22 19 15 11
3 5 6 13 12 4 24 19 14 16 14 23 24 22 15 15 19 17 18 20 21 21 25 30 33 36 39 41 39 37 46 47 52 52 52 48 46 45 43 40 37 35 34 32 28 25 20 16 14
7 8 15 8 11 3 13 21 21 20 22 19 21 19 9 9 16 15 14 15 19 21 21 26 32 36 42 43 41 28 33 34 44 50 52 49 49 48 46 44 41 39 37 33 32 29 23 13 18
4 6 10 10 7 6 8 8 4 7 6 5 12 8 9 10 12 14 15 22 20 19 24 24 30 35 38 38 35 29 21 23 33 41 48 51 51 49 48 45 44 42 40 39 37 34 28 19 18
7 10 10 6 5 4 6 13 5 7 9 8 5 5 7 8 8 7 9 18 27 24 19 20 25 29 32 36 33 38 32 23 29 34 41 50 51 51 49 48 46 44 42 41 40 36 32 25 19
10 3 3 2 3 4 1 3 5 3 7 7 6 3 3 5 5 14 16 24 31 28 21 14 14 23 26 35 36 33 27 27 23 33 37 44 50 50 50 48 46 46 45 43 40 38 35 29 25
4 3 5 4 2 4 8 7 2 4 5 1 2 9 3 13 13 17 17 22 24 34 26 18 6 11 19 25 28 31 28 25 24 30 34 41 45 48 47 47 46 46 45 46 44 41 38 35 28
3 4 4 3 1 8 1 2 7 5 10 5 8 10 9 9 12 17 20 21 29 31 30 28 18 10 10 16 24 28 29 30 30 29 27 31 37 45 51 48 47 47 47 47 45 42 41 39 36
7 9 6 7 6 9 2 7 13 8 5 5 7 7 14 19 18 18 19 27 30 34 35 32 25 17 12 11 17 22 27 29 31 33 33 35 40 47 50 52 51 51 49 46 43 43 42 40 38
3 6 4 1 2 1 7 12 14 8 7 13 17 20 18 18 18 18 21 28 30 32 34 36 34 30 25 20 16 20 24 28 32 32 30 32 34 37 41 49 54 54 52 49 48 48 47 43 40
7 1 1 2 3 13 7 14 14 13 12 13 15 14 12 13 15 15 16 23 27 28 30 33 35 33 34 33 24 22 23 27 31 32 33 35 35 35 36 41 48 51 52 51 50 49 49 46 44
2 4 4 3 5 11 10 7 8 8 9 9 8 7 9 10 11 11 12 17 20 25 29 31 31 33 35 35 35 28 24 28 30 34 33 34 36 35 38 39 44 49 52 52 51 49 50 49 47
2 7 7 6 7 5 8 9 5 12 11 9 7 9 10 11 11 10 14 15 18 21 24 28 28 29 34 36 36 35 34 24 26 32 34 33 36 37 38 40 42 46 49 53 54 50 51 53 51
Wind_Direction
338 348 348 28 46 57 268 263 290 274 259 135 124 149 205 239 173 222 208 184 177 177 177 180 184 185 185 191 196 196 194 191 185 189 198 184 168 162 151 154 143 134 139 171 190 147 149 141 105
346 340 45 76 86 36 269 260 243 235 20 139 164 151 259 261 240 271 225 183 174 179 180 183 187 191 191 196 201 203 197 190 187 194 197 197 184 204 177 161 150 175 183 180 138 119 99 100 247
25 30 79 88 106 195 232 222 244 270 211 188 237 240 242 234 247 257 220 179 175 181 182 181 181 185 192 199 205 205 194 192 196 192 201 193 184 176 175 167 166 157 162 150 142 150 200 231 259
40 27 46 86 234 254 229 243 234 305 140 247 201 274 283 231 203 226 202 182 182 183 185 185 185 185 187 194 200 200 194 193 195 202 204 203 197 183 174 171 145 153 145 143 130 124 108 117 27
52 54 50 14 258 265 255 264 218 263 295 206 193 270 263 253 232 233 200 189 188 185 188 192 195 195 193 189 189 193 191 192 196 198 198 199 195 183 177 168 163 168 175 167 134 124 131 98 68
51 97 50 276 260 265 275 240 199 210 244 226 204 253 252 260 250 226 208 197 191 190 192 198 200 201 198 198 199 199 200 200 195 199 193 191 187 180 175 170 169 171 182 175 168 147 108 76 67
116 94 205 236 270 297 246 134 188 203 226 247 176 227 259 281 248 218 207 196 195 196 200 200 203 205 204 202 202 204 209 208 204 198 192 190 185 183 180 178 171 162 154 156 145 136 116 98 73
107 97 160 230 226 271 264 229 182 172 258 74 183 235 258 213 216 203 198 196 201 203 206 207 207 206 207 209 205 206 210 206 199 195 197 197 194 187 184 174 166 162 160 154 152 149 135 117 103
133 75 211 244 172 246 251 271 187 139 254 209 207 213 241 217 195 195 196 202 206 210 212 210 211 209 212 212 208 208 211 206 201 197 198 200 195 192 187 175 169 166 166 159 158 150 136 117 106
112 142 220 211 197 222 249 220 231 190 249 244 268 258 247 232 207 202 203 210 213 216 214 213 213 212 212 212 209 207 204 206 204 203 204 206 199 196 186 178 177 176 173 170 173 165 154 131 108
171 204 217 248 228 221 242 266 209 181 256 233 219 234 212 219 221 222 221 219 220 223 219 216 215 214 214 212 209 208 207 208 208 209 210 208 201 196 187 185 186 185 184 179 179 168 158 146 132
215 245 214 247 222 236 249 307 231 199 255 241 226 225 200 213 219 222 226 229 230 230 230 224 219 216 216 215 212 211 208 209 211 212 212 208 204 199 194 194 193 191 188 186 178 172 166 155 138
223 249 244 230 255 254 295 267 237 247 257 274 277 246 244 238 238 239 244 245 238 237 235 230 224 220 218 215 216 214 213 213 214 214 213 211 208 204 199 198 197 196 194 192 188 181 173 163 151
219 263 269 272 241 241 205 271 141 257 271 287 248 269 251 236 244 246 246 244 240 240 240 235 231 225 221 218 218 216 216 216 215 215 214 213 212 209 204 202 200 200 198 195 192 188 179 171 155
242 300 312 217 255 225 166 286 236 252 272 276 285 276 284 255 255 235 247 244 250 247 245 239 233 229 226 222 221 219 219 218 217 217 216 215 213 211 209 207 204 203 199 196 193 189 181 175 160
274 111 301 253 168 236 169 258 271 283 248 271 280 285 265 275 256 260 268 271 269 259 248 246 237 231 227 226 223 221 221 220 218 217 216 216 215 213 211 210 208 203 200 197 194 191 185 182 171
320 242 223 308 217 140 188 250 264 296 256 274 274 278 281 276 279 275 276 277 277 271 261 248 239 233 228 224 221 221 223 222 221 219 217 216 216 215 213 211 209 205 201 199 197 192 191 186 173
235 228 247 253 288 167 215 247 278 288 293 281 280 271 269 278 275 282 287 283 279 271 261 252 243 234 227 218 214 219 224 223 223 221 219 217 216 214 213 213 210 206 203 200 198 197 194 189 176
235 231 250 266 273 294 284 280 272 274 260 272 276 276 276 280 279 291 299 294 279 265 254 246 235 228 216 207 202 210 216 216 222 223 223 218 216 214 213 212 209 207 207 205 199 196 194 185 173
247 277 270 277 266 178 272 285 285 261 266 259 266 281 297 290 305 312 313 302 288 279 261 246 238 229 216 207 205 206 209 217 220 220 222 219 217 215 214 213 210 209 206 203 201 199 188 186 182
214 228 268 260 325 253 308 269 220 264 245 269 260 290 286 284 298 312 322 316 297 289 279 252 242 234 223 210 198 200 204 215 215 219 221 218 217 216 215 215 213 211 208 205 204 202 200 184 189
259 232 251 276 353 276 28 302 205 243 271 263 341 283 302 321 320 301 291 337 341 328 306 281 256 232 227 216 205 197 198 195 210 210 215 217 216 215 215 215 213 212 211 211 209 206 204 199 184
227 189 249 153 182 328 28 307 277 198 251 291 301 51 326 275 266 2 359 341 346 351 340 317 270 241 228 219 212 208 215 209 213 203 208 213 215 217 215 215 215 213 212 213 213 209 208 207 203
100 87 46 57 87 284 212 191 25 170 197 256 291 324 342 14 358 1 3 354 1 16 12 4 331 254 231 225 222 222 219 220 212 200 201 207 213 215 219 218 216 216 216 215 213 212 212 210 212
112 73 318 324 27 230 182 230 238 277 287 8 313 334 18 341 7 10 7 11 9 13 16 22 14 343 272 248 237 233 233 233 226 217 203 197 204 212 216 217 216 217 219 218 215 213 213 212 212
187 169 187 218 235 262 165 246 267 209 28 306 15 61 22 16 20 17 14 12 15 17 19 20 17 5 342 292 270 259 256 254 244 235 224 220 216 216 217 216 216 218 218 219 218 218 217 215 215
170 195 234 285 60 280 257 272 295 319 66 45 38 35 21 13 12 15 14 15 11 17 21 26 23 20 7 340 308 282 268 256 252 248 244 242 234 228 225 221 217 218 218 217 215 216 217 216 217
185 173 176 303 213 243 220 253 258 301 72 39 27 22 20 14 11 14 17 14 10 15 18 22 22 22 20 19 355 316 289 273 261 254 247 242 240 235 231 227 224 221 220 218 216 215 216 214 216
168 244 237 286 214 248 252 233 237 94 93 85 47 33 25 20 10 10 12 17 18 15 14 12 14 9 11 9 9 5 326 295 278 265 256 249 248 239 233 230 228 224 220 219 218 215 215 214 214
241 249 211 227 232 252 249 246 358 104 93 84 69 47 29 17 10 5 3 6 16 18 14 8 5 7 4 1 5 5 4 341 296 280 271 260 251 247 241 235 229 227 224 220 217 214 214 212 209
Height
823 822 822 822 845 853 857 845 838 833 828 824 825 826 826 823 825 832 809 809 810 814 818 822 826 829 832 835 837 839 841 842 844 845 846 847 848 850 852 854 854 854 856 856 857 856 856 856 856
823 822 823 833 854 862 853 842 837 830 823 823 823 823 824 821 813 809 808 808 810 813 816 820 824 827 831 834 836 838 840 842 844 845 846 847 849 850 851 853 853 855 855 855 855 856 855 855 855
823 823 830 846 864 861 851 835 829 823 822 823 823 821 818 814 809 806 806 807 809 813 816 819 823 826 829 832 835 837 839 841 844 846 847 849 851 851 853 851 853 854 854 855 855 855 855 855 855
823 826 839 850 857 849 841 828 828 824 821 823 821 822 816 806 806 805 806 808 809 813 816 820 822 825 828 831 833 836 838 841 843 846 848 849 851 851 851 851 852 854 854 854 854 855 854 854 853
825 835 852 858 856 844 836 829 825 824 823 822 821 820 817 804 804 805 805 807 809 812 815 818 821 824 826 828 831 834 836 839 841 844 846 848 850 850 850 851 853 853 853 853 853 855 853 853 853
835 842 858 861 853 841 832 825 824 825 823 822 823 821 813 801 802 803 804 805 807 810 814 817 820 822 824 827 830 832 835 837 840 843 845 846 848 848 849 850 851 852 852 853 853 854 853 853 853
837 848 856 857 853 844 826 823 822 820 820 818 815 818 807 801 799 800 802 804 807 810 812 814 816 820 823 825 828 830 833 835 838 841 842 844 845 846 847 849 849 850 852 853 853 854 854 854 855
835 843 852 855 850 839 819 821 815 818 814 814 813 814 807 798 798 799 800 803 806 807 809 811 813 815 818 821 824 827 830 832 835 837 839 841 843 844 846 848 850 852 852 851 852 854 854 854 855
831 850 858 845 849 829 818 818 815 812 813 812 807 803 796 796 797 798 799 800 801 802 804 806 809 811 814 817 820 824 827 829 831 834 835 838 840 842 845 846 848 850 850 850 852 852 852 853 853
836 852 843 830 829 824 816 816 811 814 811 809 805 796 794 794 795 795 795 794 795 795 796 800 804 806 810 813 817 820 823 825 828 830 831 834 837 839 842 845 846 847 848 849 851 851 852 852 852
836 838 829 823 820 816 816 814 809 812 812 798 798 791 789 791 792 791 790 788 785 787 791 793 798 802 805 808 812 815 818 821 824 826 828 832 834 836 839 841 843 844 846 847 848 849 851 852 852
832 826 823 817 814 815 814 811 809 809 786 782 783 784 783 785 785 784 783 781 783 784 785 788 792 796 800 804 806 809 812 815 819 821 825 828 830 832 834 837 839 842 844 846 847 848 850 851 851
831 824 818 816 816 814 812 807 809 798 782 781 781 781 778 778 775 774 774 775 776 776 778 781 785 787 791 796 800 803 805 808 812 816 820 823 826 828 831 834 837 839 841 844 846 847 849 849 850
821 820 818 814 811 811 811 797 801 782 779 778 779 771 771 772 766 768 767 764 766 767 767 773 775 780 783 786 790 794 799 802 806 810 813 817 821 825 827 830 833 835 838 841 844 846 847 848 848
817 821 816 811 803 807 808 808 802 774 780 779 770 770 766 763 762 758 753 755 754 755 759 760 765 770 773 777 780 785 788 793 799 802 806 810 814 818 822 826 828 832 835 838 841 844 845 847 846
821 824 826 797 804 799 800 803 780 775 779 776 771 763 763 755 750 748 750 750 750 750 750 753 755 758 762 766 770 774 779 783 788 793 799 803 808 813 816 820 823 827 831 835 838 840 842 844 844
832 832 831 818 795 797 803 800 781 777 780 777 769 762 753 747 740 740 741 741 741 741 742 742 745 746 750 756 763 767 771 775 780 785 790 795 801 806 810 814 819 823 826 829 833 835 838 840 842
827 834 831 824 792 802 802 799 785 780 778 765 757 751 746 745 738 732 736 736 733 732 733 734 736 739 744 750 756 761 764 768 771 776 780 787 792 798 804 809 814 817 821 825 828 831 834 837 839
815 822 825 807 797 800 785 782 781 773 770 757 746 739 740 739 730 731 730 728 724 722 723 723 725 728 733 738 743 750 748 756 760 766 771 778 784 790 795 800 806 811 815 819 824 828 830 833 836
820 822 815 804 793 803 791 778 768 760 751 746 741 737 742 737 728 726 726 725 722 717 714 715 717 719 719 722 727 736 740 746 751 757 761 769 775 781 787 792 798 803 808 813 818 822 825 829 831
821 819 806 809 805 798 794 774 770 749 749 743 735 742 742 743 736 729 725 720 717 713 712 708 710 714 718 720 723 729 737 743 746 748 754 759 765 772 778 784 791 797 802 806 810 814 818 822 825
818 803 804 807 811 809 796 773 768 746 747 738 742 740 742 742 736 732 729 716 716 711 708 707 710 708 717 724 726 721 717 724 727 736 746 752 759 763 768 775 780 787 794 800 804 809 812 815 818
799 793 797 802 810 810 803 811 764 753 748 744 739 735 735 737 735 725 726 729 724 718 711 708 708 711 715 717 720 726 728 720 720 727 734 743 751 758 761 766 773 778 784 791 797 803 807 810 812
795 797 810 818 812 815 791 794 758 754 738 737 734 732 735 734 734 730 733 733 728 722 716 714 712 717 717 720 727 730 728 730 727 724 727 732 741 750 759 763 767 773 777 781 786 793 799 803 807
795 805 819 821 835 803 794 798 754 737 732 738 738 741 749 746 744 745 740 733 732 728 723 716 719 722 724 726 726 730 732 732 732 731 729 730 733 739 744 754 761 765 771 775 780 786 790 794 797
802 798 806 810 809 777 818 779 732 738 736 741 745 753 756 757 756 758 754 749 741 733 728 727 724 726 727 727 730 731 737 739 738 731 727 726 728 730 734 742 749 755 762 770 777 782 786 789 792
794 798 782 790 803 795 767 760 732 730 744 753 764 768 772 770 767 763 760 758 757 747 741 734 733 730 729 729 728 730 732 734 735 733 731 731 730 730 735 736 738 743 749 757 763 769 775 781 786
780 776 788 800 793 778 765 755 745 733 760 776 775 779 780 778 773 767 763 762 765 756 750 743 740 737 733 730 729 728 730 732 732 730 723 721 723 726 729 733 738 740 744 749 754 758 763 769 775
785 782 778 778 776 759 763 751 741 764 776 780 786 783 781 780 780 774 769 764 762 759 754 751 744 744 735 734 729 726 727 728 729 728 719 717 720 721 722 724 730 734 736 740 746 748 753 757 763
767 767 765 774 767 763 749 747 740 774 778 780 785 783 780 780 780 776 773 767 760 755 752 753 750 746 742 739 732 728 724 724 725 723 718 713 714 715 717 719 719 725 730 730 733 739 740 744 748